When you browse on this site, cookies collect data to enhance your experience and personalize the content and advertising you see.
Visit our Privacy Policy to learn more. By continuing to use the site, you agree to this use of cookies and data.
  • In Hungary
  • List of Countries
  • For 7 days
  • Water Temperature
  • Weather Map
  • News
  • Weather Widgets
  • user-avatar
    Login

    Hourly Weather Junagadh

    Today, 20 November, Wednesday

    Time Temperature Precipitation Wind Pressure Humidity
    00:00 +25°C° 0 mm 2 mps 752 mmHg 48%
    01:00 +25°C° 0 mm 2 mps 752 mmHg 49%
    02:00 +25°C° 0 mm 2 mps 752 mmHg 50%
    03:00 +24°C° 0 mm 2 mps 752 mmHg 52%
    04:00 +24°C° 0 mm 2 mps 752 mmHg 54%
    05:00 +24°C° 0 mm 2 mps 751 mmHg 54%
    06:00 +25°C° 0 mm 2 mps 752 mmHg 53%
    07:00 +25°C° 0 mm 2 mps 752 mmHg 51%
    08:00 +26°C° 0 mm 2 mps 753 mmHg 50%
    09:00 +27°C° 0 mm 2 mps 753 mmHg 44%
    10:00 +29°C° 0 mm 2 mps 753 mmHg 39%
    11:00 +31°C° 0 mm 2 mps 753 mmHg 32%
    12:00 +32°C° 0 mm 2 mps 752 mmHg 30%
    13:00 +32°C° 0 mm 1 mps 752 mmHg 27%
    14:00 +33°C° 0 mm 1 mps 751 mmHg 25%
    15:00 +33°C° 0 mm 1 mps 751 mmHg 26%
    16:00 +32°C° 0 mm 1 mps 751 mmHg 28%
    17:00 +31°C° 0 mm 1 mps 751 mmHg 30%
    18:00 +30°C° 0 mm 1 mps 751 mmHg 35%
    19:00 +28°C° 0 mm 1 mps 752 mmHg 41%
    20:00 +27°C° 0 mm 2 mps 752 mmHg 46%
    21:00 +26°C° 0 mm 1 mps 752 mmHg 47%
    22:00 +26°C° 0 mm 1 mps 752 mmHg 48%
    23:00 +25°C° 0 mm 1 mps 752 mmHg 50%

    Tomorrow, 21 November, Thursday

    Time Temperature Precipitation Wind Pressure Humidity
    00:00 +25°C° 0 mm 1 mps 752 mmHg 49%
    01:00 +25°C° 0 mm 1 mps 752 mmHg 49%
    02:00 +25°C° 0 mm 1 mps 751 mmHg 48%
    03:00 +25°C° 0 mm 2 mps 751 mmHg 48%
    04:00 +24°C° 0 mm 2 mps 751 mmHg 47%
    05:00 +24°C° 0 mm 2 mps 751 mmHg 47%
    06:00 +25°C° 0 mm 2 mps 752 mmHg 47%
    07:00 +25°C° 0 mm 2 mps 752 mmHg 46%
    08:00 +26°C° 0 mm 2 mps 753 mmHg 46%
    09:00 +28°C° 0 mm 2 mps 753 mmHg 42%
    10:00 +30°C° 0 mm 2 mps 753 mmHg 38%
    11:00 +32°C° 0 mm 2 mps 753 mmHg 33%
    12:00 +34°C° 0 mm 2 mps 753 mmHg 29%
    13:00 +33°C° 0 mm 1 mps 752 mmHg 25%
    14:00 +34°C° 0 mm 1 mps 752 mmHg 20%
    15:00 +34°C° 0 mm 1 mps 751 mmHg 23%
    16:00 +33°C° 0 mm 1 mps 751 mmHg 25%
    17:00 +32°C° 0 mm 2 mps 751 mmHg 27%
    18:00 +30°C° 0 mm 2 mps 752 mmHg 33%
    19:00 +29°C° 0 mm 2 mps 752 mmHg 40%
    20:00 +27°C° 0 mm 2 mps 753 mmHg 46%
    21:00 +27°C° 0 mm 1 mps 753 mmHg 47%
    22:00 +26°C° 0 mm 1 mps 753 mmHg 49%
    23:00 +26°C° 0 mm 1 mps 753 mmHg 50%

    Day after tomorrow, 22 November, Friday

    Time Temperature Precipitation Wind Pressure Humidity
    00:00 +26°C° 0 mm 1 mps 753 mmHg 51%
    01:00 +25°C° 0 mm 1 mps 753 mmHg 52%
    02:00 +23°C° 0 mm 0 mps 753 mmHg 52%
    03:00 +25°C° 0 mm 1 mps 752 mmHg 53%
    04:00 +24°C° 0 mm 1 mps 752 mmHg 54%
    05:00 +24°C° 0 mm 1 mps 752 mmHg 55%
    06:00 +25°C° 0 mm 1 mps 753 mmHg 53%
    07:00 +26°C° 0 mm 1 mps 753 mmHg 51%
    08:00 +27°C° 0 mm 1 mps 754 mmHg 48%
    09:00 +29°C° 0 mm 1 mps 754 mmHg 42%
    10:00 +31°C° 0 mm 1 mps 754 mmHg 36%
    11:00 +33°C° 0 mm 1 mps 754 mmHg 30%
    12:00 +34°C° 0 mm 1 mps 754 mmHg 27%
    13:00 +35°C° 0 mm 1 mps 753 mmHg 24%
    14:00 +35°C° 0 mm 1 mps 752 mmHg 21%
    15:00 +35°C° 0 mm 1 mps 752 mmHg 24%
    16:00 +35°C° 0 mm 2 mps 752 mmHg 26%
    17:00 +34°C° 0 mm 2 mps 752 mmHg 28%
    18:00 +31°C° 0 mm 2 mps 752 mmHg 35%
    19:00 +30°C° 0 mm 2 mps 753 mmHg 41%
    20:00 +28°C° 0 mm 1 mps 753 mmHg 47%
    21:00 +27°C° 0 mm 1 mps 753 mmHg 48%
    22:00 +27°C° 0 mm 1 mps 753 mmHg 49%
    23:00 +27°C° 0 mm 1 mps 753 mmHg 50%

    23 November, Saturday

    Time Temperature Precipitation Wind Pressure Humidity
    00:00 +26°C° 0 mm 1 mps 753 mmHg 51%
    01:00 +26°C° 0 mm 1 mps 753 mmHg 52%
    02:00 +26°C° 0 mm 1 mps 753 mmHg 53%
    03:00 +26°C° 0 mm 1 mps 752 mmHg 52%
    04:00 +26°C° 0 mm 1 mps 752 mmHg 51%
    05:00 +26°C° 0 mm 1 mps 752 mmHg 51%
    06:00 +26°C° 0 mm 2 mps 753 mmHg 49%
    07:00 +27°C° 0 mm 2 mps 753 mmHg 48%
    08:00 +28°C° 0 mm 2 mps 754 mmHg 47%
    09:00 +30°C° 0 mm 2 mps 754 mmHg 42%
    10:00 +32°C° 0 mm 2 mps 754 mmHg 37%
    11:00 +34°C° 0 mm 3 mps 754 mmHg 32%
    12:00 +35°C° 0 mm 2 mps 753 mmHg 30%
    13:00 +36°C° 0 mm 2 mps 753 mmHg 27%
    14:00 +36°C° 0 mm 2 mps 752 mmHg 25%
    15:00 +36°C° 0 mm 2 mps 752 mmHg 27%
    16:00 +35°C° 0 mm 2 mps 752 mmHg 28%
    17:00 +34°C° 0 mm 1 mps 752 mmHg 30%
    18:00 +32°C° 0 mm 2 mps 752 mmHg 36%
    19:00 +30°C° 0 mm 2 mps 752 mmHg 42%
    20:00 +28°C° 0 mm 2 mps 753 mmHg 48%
    21:00 +28°C° 0 mm 2 mps 753 mmHg 50%
    22:00 +27°C° 0 mm 1 mps 753 mmHg 53%
    23:00 +27°C° 0 mm 1 mps 753 mmHg 55%

    24 November, Sunday

    Time Temperature Precipitation Wind Pressure Humidity
    00:00 +26°C° 0 mm 1 mps 753 mmHg 56%
    01:00 +26°C° 0 mm 1 mps 752 mmHg 56%
    02:00 +26°C° 0 mm 1 mps 752 mmHg 57%
    03:00 +26°C° 0 mm 1 mps 752 mmHg 56%
    04:00 +25°C° 0 mm 2 mps 752 mmHg 55%
    05:00 +25°C° 0 mm 2 mps 752 mmHg 54%
    06:00 +26°C° 0 mm 2 mps 752 mmHg 52%
    07:00 +26°C° 0 mm 2 mps 753 mmHg 51%
    08:00 +27°C° 0 mm 2 mps 753 mmHg 49%
    09:00 +29°C° 0 mm 3 mps 753 mmHg 43%
    10:00 +31°C° 0 mm 3 mps 753 mmHg 38%
    11:00 +34°C° 0 mm 3 mps 753 mmHg 32%
    12:00 +35°C° 0 mm 3 mps 753 mmHg 30%
    13:00 +35°C° 0 mm 2 mps 752 mmHg 27%
    14:00 +36°C° 0 mm 2 mps 751 mmHg 25%
    15:00 +36°C° 0 mm 2 mps 751 mmHg 27%
    16:00 +34°C° 0 mm 1 mps 751 mmHg 29%
    17:00 +34°C° 0 mm 1 mps 751 mmHg 31%
    18:00 +32°C° 0 mm 1 mps 752 mmHg 37%
    19:00 +30°C° 0 mm 2 mps 752 mmHg 43%
    20:00 +28°C° 0 mm 2 mps 752 mmHg 50%
    21:00 +28°C° 0 mm 1 mps 752 mmHg 51%
    22:00 +27°C° 0 mm 1 mps 752 mmHg 52%
    23:00 +27°C° 0 mm 1 mps 752 mmHg 53%

    25 November, Monday

    Time Temperature Precipitation Wind Pressure Humidity
    00:00 +27°C° 0 mm 1 mps 752 mmHg 53%
    01:00 +27°C° 0 mm 1 mps 752 mmHg 54%
    02:00 +26°C° 0 mm 1 mps 751 mmHg 54%
    03:00 +26°C° 0 mm 1 mps 751 mmHg 54%
    04:00 +26°C° 0 mm 1 mps 751 mmHg 54%
    05:00 +25°C° 0 mm 2 mps 751 mmHg 54%
    06:00 +26°C° 0 mm 2 mps 752 mmHg 52%
    07:00 +27°C° 0 mm 2 mps 752 mmHg 51%
    08:00 +27°C° 0 mm 2 mps 753 mmHg 49%
    09:00 +29°C° 0 mm 2 mps 753 mmHg 43%
    10:00 +31°C° 0 mm 3 mps 753 mmHg 38%
    11:00 +34°C° 0 mm 3 mps 753 mmHg 32%
    12:00 +35°C° 0 mm 3 mps 752 mmHg 29%
    13:00 +36°C° 0 mm 3 mps 752 mmHg 27%
    14:00 +36°C° 0 mm 3 mps 751 mmHg 24%
    15:00 +36°C° 0 mm 3 mps 751 mmHg 26%
    16:00 +35°C° 0 mm 2 mps 751 mmHg 28%
    17:00 +34°C° 0 mm 2 mps 751 mmHg 30%
    18:00 +31°C° 0 mm 2 mps 751 mmHg 37%
    19:00 +30°C° 0 mm 2 mps 752 mmHg 44%
    20:00 +28°C° 0 mm 2 mps 752 mmHg 51%
    21:00 +27°C° 0 mm 1 mps 752 mmHg 54%
    22:00 +27°C° 0 mm 1 mps 752 mmHg 56%
    23:00 +26°C° 0 mm 1 mps 752 mmHg 59%
    Show more